Location: Newark
(35.8833°N, 14.5000°E)
Time: 13:40:59
(UTC+00:00)

Altair - Pass Details

Date: 26 November 2019
Orbit: 1502 x 1682 km, 47.2° (Epoch: 10 December)

Event Time Altitude Azimuth Distance (km) Brightness Sun altitude
Rises 01:04:21 0° 257° (WSW) 4,674 - -56.9°
Reaches altitude 10° 01:07:32 10° 262° (W) 3,676 - -56.3°
Maximum altitude 01:16:30 54° 339° (NNW) 1,775 - -54.5°
Exits shadow 01:22:33 22° 47° (NE) 2,804 9.1 -53.3°
Drops below altitude 10° 01:25:28 10° 55° (NE) 3,661 9.9 -52.8°
Sets 01:28:37 0° 61° (ENE) 4,653 10.6 -52.2°
